Year,Month,Day,Hour,Minute,Value (Times are PST for temperature in C)
2018,08,13,00,00,13.60
2018,08,13,00,01,13.60
2018,08,13,00,02,13.60
2018,08,13,00,03,13.60
2018,08,13,00,04,13.50
2018,08,13,00,05,13.50
2018,08,13,00,06,13.50
2018,08,13,00,07,13.50
2018,08,13,00,08,13.50
2018,08,13,00,09,13.40
2018,08,13,00,10,13.40
2018,08,13,00,11,13.40
2018,08,13,00,12,13.40
2018,08,13,00,13,13.40
2018,08,13,00,14,13.40
2018,08,13,00,15,13.40
2018,08,13,00,16,13.30
2018,08,13,00,17,13.30
2018,08,13,00,18,13.30
2018,08,13,00,19,13.30
2018,08,13,00,20,13.30
2018,08,13,00,21,13.30
2018,08,13,00,22,13.30
2018,08,13,00,23,13.30
2018,08,13,00,24,13.30
2018,08,13,00,25,13.30
2018,08,13,00,26,13.30
2018,08,13,00,27,13.20
2018,08,13,00,28,13.20
2018,08,13,00,29,13.20
2018,08,13,00,30,13.20
2018,08,13,00,31,13.20
2018,08,13,00,32,13.20
2018,08,13,00,33,13.20
2018,08,13,00,34,13.20
2018,08,13,00,35,13.20
2018,08,13,00,36,13.20
2018,08,13,00,37,13.20
2018,08,13,00,38,13.20
2018,08,13,00,39,13.20
2018,08,13,00,40,13.20
2018,08,13,00,41,13.20
2018,08,13,00,42,13.20
2018,08,13,00,43,13.20
2018,08,13,00,44,13.20
2018,08,13,00,45,13.20
2018,08,13,00,46,13.20
2018,08,13,00,47,13.20
2018,08,13,00,48,13.20
2018,08,13,00,49,13.20
2018,08,13,00,50,13.20
2018,08,13,00,51,13.20
2018,08,13,00,52,13.20
2018,08,13,00,53,13.20
2018,08,13,00,54,13.20
2018,08,13,00,55,13.20
2018,08,13,00,56,13.20
2018,08,13,00,57,13.20
2018,08,13,00,58,13.20
2018,08,13,00,59,13.20
2018,08,13,01,00,13.20
2018,08,13,01,01,13.20
2018,08,13,01,02,13.20
2018,08,13,01,03,13.10
2018,08,13,01,04,13.20
2018,08,13,01,05,13.10
2018,08,13,01,06,13.10
2018,08,13,01,07,13.10
2018,08,13,01,08,13.20
2018,08,13,01,09,13.10
2018,08,13,01,10,13.10
2018,08,13,01,11,13.10
2018,08,13,01,12,13.10
2018,08,13,01,13,13.10
2018,08,13,01,14,13.10
2018,08,13,01,15,13.10
2018,08,13,01,16,13.10
2018,08,13,01,17,13.10
2018,08,13,01,18,13.10
2018,08,13,01,19,13.10
2018,08,13,01,20,13.10
2018,08,13,01,21,13.10
2018,08,13,01,22,13.00
2018,08,13,01,23,13.00
2018,08,13,01,24,13.00
2018,08,13,01,25,13.00
2018,08,13,01,26,13.00
2018,08,13,01,27,13.00
2018,08,13,01,28,12.90
2018,08,13,01,29,12.90
2018,08,13,01,30,12.90
2018,08,13,01,31,12.90
2018,08,13,01,32,12.90
2018,08,13,01,33,12.90
2018,08,13,01,34,12.90
2018,08,13,01,35,12.90
2018,08,13,01,36,12.90
2018,08,13,01,37,12.90
2018,08,13,01,38,12.90
2018,08,13,01,39,12.90
2018,08,13,01,40,12.90
2018,08,13,01,41,12.90
2018,08,13,01,42,12.90
2018,08,13,01,43,12.90
2018,08,13,01,44,12.90
2018,08,13,01,45,12.90
2018,08,13,01,46,12.90
2018,08,13,01,47,12.80
2018,08,13,01,48,12.80
2018,08,13,01,49,12.80
2018,08,13,01,50,12.80
2018,08,13,01,51,12.80
2018,08,13,01,52,12.80
2018,08,13,01,53,12.80
2018,08,13,01,54,12.80
2018,08,13,01,55,12.80
2018,08,13,01,56,12.80
2018,08,13,01,57,12.80
2018,08,13,01,58,12.80
2018,08,13,01,59,12.80
2018,08,13,02,00,12.80
2018,08,13,02,01,12.70
2018,08,13,02,02,12.70
2018,08,13,02,03,12.70
2018,08,13,02,04,12.70
2018,08,13,02,05,12.70
2018,08,13,02,06,12.70
2018,08,13,02,07,12.70
2018,08,13,02,08,12.70
2018,08,13,02,09,12.70
2018,08,13,02,10,12.70
2018,08,13,02,11,12.70
2018,08,13,02,12,12.70
2018,08,13,02,13,12.70
2018,08,13,02,14,12.70
2018,08,13,02,15,12.70
2018,08,13,02,16,12.70
2018,08,13,02,17,12.70
2018,08,13,02,18,12.70
2018,08,13,02,19,12.70
2018,08,13,02,20,12.70
2018,08,13,02,21,12.70
2018,08,13,02,22,12.70
2018,08,13,02,23,12.70
2018,08,13,02,24,12.70
2018,08,13,02,25,12.70
2018,08,13,02,26,12.70
2018,08,13,02,27,12.70
2018,08,13,02,28,12.70
2018,08,13,02,29,12.70
2018,08,13,02,30,12.70
2018,08,13,02,31,12.70
2018,08,13,02,32,12.70
2018,08,13,02,33,12.70
2018,08,13,02,34,12.70
2018,08,13,02,35,12.70
2018,08,13,02,36,12.70
2018,08,13,02,37,12.80
2018,08,13,02,38,12.80
2018,08,13,02,39,12.90
2018,08,13,02,40,12.90
2018,08,13,02,41,12.90
2018,08,13,02,42,12.90
2018,08,13,02,43,12.90
2018,08,13,02,44,12.90
2018,08,13,02,45,13.00
2018,08,13,02,46,13.00
2018,08,13,02,47,13.00
2018,08,13,02,48,13.00
2018,08,13,02,49,12.90
2018,08,13,02,50,12.90
2018,08,13,02,51,12.90
2018,08,13,02,52,12.90
2018,08,13,02,53,12.90
2018,08,13,02,54,13.00
2018,08,13,02,55,13.00
2018,08,13,02,56,13.00
2018,08,13,02,57,13.00
2018,08,13,02,58,13.00
2018,08,13,02,59,12.90
2018,08,13,03,00,12.90
2018,08,13,03,01,12.90
2018,08,13,03,02,12.90
2018,08,13,03,06,12.80
2018,08,13,03,07,12.80
2018,08,13,03,08,12.80
2018,08,13,03,09,12.80
2018,08,13,03,10,12.80
2018,08,13,03,11,12.80
2018,08,13,03,12,12.80
2018,08,13,03,13,12.80
2018,08,13,03,14,12.80
2018,08,13,03,15,12.80
2018,08,13,03,16,12.80
2018,08,13,03,17,12.70
2018,08,13,03,18,12.70
2018,08,13,03,19,12.70
2018,08,13,03,20,12.70
2018,08,13,03,21,12.70
2018,08,13,03,22,12.70
2018,08,13,03,23,12.70
2018,08,13,03,24,12.70
2018,08,13,03,25,12.70
2018,08,13,03,26,12.70
2018,08,13,03,27,12.70
2018,08,13,03,28,12.70
2018,08,13,03,29,12.70
2018,08,13,03,30,12.70
2018,08,13,03,31,12.70
2018,08,13,03,32,12.70
2018,08,13,03,33,12.70
2018,08,13,03,34,12.70
2018,08,13,03,35,12.70
2018,08,13,03,36,12.70
2018,08,13,03,37,12.70
2018,08,13,03,38,12.70
2018,08,13,03,39,12.70
2018,08,13,03,40,12.70
2018,08,13,03,41,12.70
2018,08,13,03,42,12.70
2018,08,13,03,43,12.70
2018,08,13,03,44,12.70
2018,08,13,03,45,12.70
2018,08,13,03,46,12.80
2018,08,13,03,47,12.80
2018,08,13,03,48,12.80
2018,08,13,03,49,12.80
2018,08,13,03,50,12.70
2018,08,13,03,51,12.70
2018,08,13,03,52,12.70
2018,08,13,03,53,12.70
2018,08,13,03,54,12.70
2018,08,13,03,55,12.70
2018,08,13,03,56,12.70
2018,08,13,03,57,12.70
2018,08,13,03,58,12.60
2018,08,13,03,59,12.60
2018,08,13,04,00,12.60
2018,08,13,04,01,12.60
2018,08,13,04,02,12.60
2018,08,13,04,03,12.60
2018,08,13,04,04,12.60
2018,08,13,04,05,12.60
2018,08,13,04,06,12.60
2018,08,13,04,07,12.60
2018,08,13,04,08,12.60
2018,08,13,04,09,12.60
2018,08,13,04,10,12.60
2018,08,13,04,11,12.60
2018,08,13,04,12,12.60
2018,08,13,04,13,12.60
2018,08,13,04,14,12.60
2018,08,13,04,15,12.60
2018,08,13,04,16,12.60
2018,08,13,04,17,12.50
2018,08,13,04,18,12.50
2018,08,13,04,19,12.50
2018,08,13,04,20,12.50
2018,08,13,04,21,12.50
2018,08,13,04,22,12.50
2018,08,13,04,23,12.50
2018,08,13,04,24,12.50
2018,08,13,04,25,12.50
2018,08,13,04,26,12.50
2018,08,13,04,27,12.60
2018,08,13,04,28,12.60
2018,08,13,04,29,12.60
2018,08,13,04,30,12.60
2018,08,13,04,31,12.60
2018,08,13,04,32,12.60
2018,08,13,04,33,12.60
2018,08,13,04,34,12.60
2018,08,13,04,35,12.60
2018,08,13,04,36,12.70
2018,08,13,04,37,12.60
2018,08,13,04,38,12.60
2018,08,13,04,39,12.60
2018,08,13,04,40,12.70
2018,08,13,04,41,12.70
2018,08,13,04,42,12.70
2018,08,13,04,43,12.70
2018,08,13,04,44,12.70
2018,08,13,04,45,12.70
2018,08,13,04,46,12.70
2018,08,13,04,47,12.70
2018,08,13,04,48,12.70
2018,08,13,04,49,12.70
2018,08,13,04,50,12.70
2018,08,13,04,51,12.70
2018,08,13,04,52,12.80
2018,08,13,04,53,12.80
2018,08,13,04,54,12.80
2018,08,13,04,55,12.80
2018,08,13,04,56,12.80
2018,08,13,04,57,12.80
2018,08,13,04,58,12.80
2018,08,13,04,59,12.80
2018,08,13,05,00,12.80
2018,08,13,05,01,12.80
2018,08,13,05,02,12.80
2018,08,13,05,03,12.80
2018,08,13,05,04,12.90
2018,08,13,05,05,12.90
2018,08,13,05,06,12.80
2018,08,13,05,07,12.80
2018,08,13,05,08,12.80
2018,08,13,05,09,12.80
2018,08,13,05,10,12.80
2018,08,13,05,11,12.80
2018,08,13,05,12,12.80
2018,08,13,05,13,12.80
2018,08,13,05,14,12.80
2018,08,13,05,15,12.70
2018,08,13,05,16,12.80
2018,08,13,05,17,12.80
2018,08,13,05,18,12.80
2018,08,13,05,19,12.80
2018,08,13,05,20,12.70
2018,08,13,05,21,12.80
2018,08,13,05,22,12.80
2018,08,13,05,23,12.80
2018,08,13,05,24,12.80
2018,08,13,05,25,12.80
2018,08,13,05,26,12.70
2018,08,13,05,27,12.70
2018,08,13,05,28,12.70
2018,08,13,05,29,12.70
2018,08,13,05,30,12.70
2018,08,13,05,31,12.70
2018,08,13,05,32,12.70
2018,08,13,05,33,12.70
2018,08,13,05,34,12.70
2018,08,13,05,35,12.70
2018,08,13,05,36,12.70
2018,08,13,05,37,12.70
2018,08,13,05,38,12.70
2018,08,13,05,39,12.70
2018,08,13,05,40,12.80
2018,08,13,05,41,12.80
2018,08,13,05,42,12.80
2018,08,13,05,43,12.80
2018,08,13,05,44,12.80
2018,08,13,05,45,12.90
2018,08,13,05,46,12.90
2018,08,13,05,47,13.00
2018,08,13,05,48,13.10
2018,08,13,05,49,13.30
2018,08,13,05,50,13.40
2018,08,13,05,51,13.40
2018,08,13,05,52,13.40
2018,08,13,05,53,13.40
2018,08,13,05,54,13.30
2018,08,13,05,55,13.30
2018,08,13,05,56,13.30
2018,08,13,05,57,13.20
2018,08,13,05,58,13.20
2018,08,13,05,59,13.10
2018,08,13,06,00,13.10
2018,08,13,06,01,13.00
2018,08,13,06,02,13.00
2018,08,13,06,03,13.00
2018,08,13,06,04,12.90
2018,08,13,06,05,12.90
2018,08,13,06,06,12.90
2018,08,13,06,07,12.90
2018,08,13,06,08,12.90
2018,08,13,06,09,12.80
2018,08,13,06,10,12.80
2018,08,13,06,11,12.80
2018,08,13,06,12,12.80
2018,08,13,06,13,12.80
2018,08,13,06,14,12.80
2018,08,13,06,15,12.80
2018,08,13,06,16,12.80
2018,08,13,06,17,12.80
2018,08,13,06,18,12.80
2018,08,13,06,19,12.80
2018,08,13,06,20,12.80
2018,08,13,06,21,12.80
2018,08,13,06,22,12.80
2018,08,13,06,23,12.80
2018,08,13,06,24,12.80
2018,08,13,06,25,12.80
2018,08,13,06,26,12.70
2018,08,13,06,27,12.80
2018,08,13,06,28,12.70
2018,08,13,06,29,12.80
2018,08,13,06,30,12.80
2018,08,13,06,31,12.80
2018,08,13,06,32,12.80
2018,08,13,06,33,12.80
2018,08,13,06,34,12.80
2018,08,13,06,35,12.80
2018,08,13,06,36,12.80
2018,08,13,06,37,12.80
2018,08,13,06,38,12.80
2018,08,13,06,39,12.80
2018,08,13,06,40,12.80
2018,08,13,06,41,12.80
2018,08,13,06,42,12.80
2018,08,13,06,43,12.80
2018,08,13,06,44,12.80
2018,08,13,06,45,12.80
2018,08,13,06,46,12.80
2018,08,13,06,47,12.80
2018,08,13,06,48,12.80
2018,08,13,06,49,12.80
2018,08,13,06,50,12.80
2018,08,13,06,51,12.80
2018,08,13,06,52,12.90
2018,08,13,06,53,12.90
2018,08,13,06,54,12.90
2018,08,13,06,55,12.90
2018,08,13,06,56,12.90
2018,08,13,06,57,12.90
2018,08,13,06,58,12.90
2018,08,13,06,59,12.90
2018,08,13,07,00,12.90
2018,08,13,07,01,13.00
2018,08,13,07,02,13.10
2018,08,13,07,03,13.10
2018,08,13,07,04,13.20
2018,08,13,07,05,13.20
2018,08,13,07,06,13.20
2018,08,13,07,07,13.20
2018,08,13,07,08,13.30
2018,08,13,07,09,13.30
2018,08,13,07,10,13.30
2018,08,13,07,11,13.30
2018,08,13,07,12,13.30
2018,08,13,07,13,13.30
2018,08,13,07,14,13.30
2018,08,13,07,15,13.30
2018,08,13,07,16,13.40
2018,08,13,07,17,13.40
2018,08,13,07,18,13.40
2018,08,13,07,19,13.40
2018,08,13,07,20,13.40
2018,08,13,07,21,13.40
2018,08,13,07,22,13.50
2018,08,13,07,23,13.50
2018,08,13,07,24,13.60
2018,08,13,07,25,13.70
2018,08,13,07,26,13.80
2018,08,13,07,27,13.80
2018,08,13,07,28,13.80
2018,08,13,07,29,13.90
2018,08,13,07,30,13.90
2018,08,13,07,31,13.90
2018,08,13,07,32,13.90
2018,08,13,07,33,13.90
2018,08,13,07,34,13.90
2018,08,13,07,35,14.00
2018,08,13,07,36,14.00
2018,08,13,07,37,14.00
2018,08,13,07,38,14.00
2018,08,13,07,39,14.10
2018,08,13,07,40,14.10
2018,08,13,07,41,14.10
2018,08,13,07,42,14.10
2018,08,13,07,43,14.10
2018,08,13,07,44,14.20
2018,08,13,07,45,14.20
2018,08,13,07,46,14.20
2018,08,13,07,47,14.30
2018,08,13,07,48,14.30
2018,08,13,07,49,14.40
2018,08,13,07,50,14.40
2018,08,13,07,51,14.40
2018,08,13,07,52,14.50
2018,08,13,07,53,14.50
2018,08,13,07,54,14.60
2018,08,13,07,55,14.60
2018,08,13,07,56,14.60
2018,08,13,07,57,14.60
2018,08,13,07,58,14.70
2018,08,13,07,59,14.70
2018,08,13,08,00,14.70
2018,08,13,08,01,14.70
2018,08,13,08,02,14.80
2018,08,13,08,03,14.80
2018,08,13,08,04,14.80
2018,08,13,08,05,14.90
2018,08,13,08,06,14.90
2018,08,13,08,07,14.90
2018,08,13,08,08,15.00
2018,08,13,08,09,15.00
2018,08,13,08,10,15.00
2018,08,13,08,11,15.10
2018,08,13,08,12,15.10
2018,08,13,08,13,15.10
2018,08,13,08,14,15.20
2018,08,13,08,15,15.20
2018,08,13,08,16,15.30
2018,08,13,08,17,15.30
2018,08,13,08,18,15.30
2018,08,13,08,19,15.40
2018,08,13,08,20,15.40
2018,08,13,08,21,15.50
2018,08,13,08,22,15.50
2018,08,13,08,23,15.60
2018,08,13,08,24,15.60
2018,08,13,08,25,15.60
2018,08,13,08,26,15.70
2018,08,13,08,27,15.70
2018,08,13,08,28,15.80
2018,08,13,08,29,15.80
2018,08,13,08,30,15.90
2018,08,13,08,31,15.90
2018,08,13,08,32,16.00
2018,08,13,08,33,16.00
2018,08,13,08,34,16.10
2018,08,13,08,35,16.10
2018,08,13,08,36,16.20
2018,08,13,08,37,16.20
2018,08,13,08,38,16.20
2018,08,13,08,39,16.30
2018,08,13,08,40,16.30
2018,08,13,08,41,16.40
2018,08,13,08,42,16.50
2018,08,13,08,43,16.50
2018,08,13,08,44,16.60
2018,08,13,08,45,16.60
2018,08,13,08,46,16.70
2018,08,13,08,47,16.70
2018,08,13,08,48,16.80
2018,08,13,08,49,16.80
2018,08,13,08,50,16.80
2018,08,13,08,51,16.90
2018,08,13,08,52,16.90
2018,08,13,08,53,17.00
2018,08,13,08,54,17.00
2018,08,13,08,55,17.10
2018,08,13,08,56,17.10
2018,08,13,08,57,17.20
2018,08,13,08,58,17.20
2018,08,13,08,59,17.30
2018,08,13,09,00,17.30
2018,08,13,09,01,17.40
2018,08,13,09,02,17.40
2018,08,13,09,03,17.40
2018,08,13,09,04,17.50
2018,08,13,09,05,17.60
2018,08,13,09,06,17.60
2018,08,13,09,07,17.70
2018,08,13,09,08,17.70
2018,08,13,09,09,17.80
2018,08,13,09,10,17.80
2018,08,13,09,11,17.80
2018,08,13,09,12,17.80
2018,08,13,09,13,17.80
2018,08,13,09,14,17.90
2018,08,13,09,15,17.90
2018,08,13,09,16,17.90
2018,08,13,09,17,17.90
2018,08,13,09,18,17.90
2018,08,13,09,19,17.90
2018,08,13,09,20,17.90
2018,08,13,09,21,18.00
2018,08,13,09,22,18.00
2018,08,13,09,23,18.10
2018,08,13,09,24,18.10
2018,08,13,09,25,18.20
2018,08,13,09,26,18.20
2018,08,13,09,27,18.20
2018,08,13,09,28,18.20
2018,08,13,09,29,18.30
2018,08,13,09,30,18.30
2018,08,13,09,31,18.30
2018,08,13,09,32,18.40
2018,08,13,09,33,18.40
2018,08,13,09,34,18.40
2018,08,13,09,35,18.50
2018,08,13,09,36,18.50
2018,08,13,09,37,18.60
2018,08,13,09,38,18.60
2018,08,13,09,39,18.70
2018,08,13,09,40,18.70
2018,08,13,09,41,18.80
2018,08,13,09,42,18.80
2018,08,13,09,43,18.80
2018,08,13,09,44,18.80
2018,08,13,09,45,18.80
2018,08,13,09,46,18.90
2018,08,13,09,47,18.90
2018,08,13,09,48,19.00
2018,08,13,09,49,19.00
2018,08,13,09,50,19.00
2018,08,13,09,51,19.00
2018,08,13,09,52,19.00
2018,08,13,09,53,19.00
2018,08,13,09,54,18.90
2018,08,13,09,55,18.90
2018,08,13,09,56,18.90
2018,08,13,09,57,18.90
2018,08,13,09,58,18.90
2018,08,13,09,59,18.90
2018,08,13,10,00,18.80
2018,08,13,10,01,18.80
2018,08,13,10,02,18.80
2018,08,13,10,03,18.80
2018,08,13,10,04,18.80
2018,08,13,10,05,18.80
2018,08,13,10,06,18.80
2018,08,13,10,07,18.80
2018,08,13,10,08,18.90
2018,08,13,10,09,18.90
2018,08,13,10,10,18.90
2018,08,13,10,11,18.90
2018,08,13,10,12,18.90
2018,08,13,10,13,19.00
2018,08,13,10,14,19.00
2018,08,13,10,15,19.00
2018,08,13,10,16,19.00
2018,08,13,10,17,19.10
2018,08,13,10,18,19.10
2018,08,13,10,19,19.10
2018,08,13,10,20,19.10
2018,08,13,10,21,19.10
2018,08,13,10,22,19.10
2018,08,13,10,23,19.10
2018,08,13,10,24,19.10
2018,08,13,10,25,19.10
2018,08,13,10,26,19.10
2018,08,13,10,27,19.10
2018,08,13,10,28,19.10
2018,08,13,10,29,19.10
2018,08,13,10,30,19.10
2018,08,13,10,31,19.10
2018,08,13,10,32,19.20
2018,08,13,10,33,19.20
2018,08,13,10,34,19.30
2018,08,13,10,35,19.30
2018,08,13,10,36,19.30
2018,08,13,10,37,19.40
2018,08,13,10,38,19.40
2018,08,13,10,39,19.40
2018,08,13,10,40,19.40
2018,08,13,10,41,19.40
2018,08,13,10,42,19.50
2018,08,13,10,43,19.40
2018,08,13,10,44,19.50
2018,08,13,10,45,19.50
2018,08,13,10,46,19.50
2018,08,13,10,47,19.60
2018,08,13,10,48,19.60
2018,08,13,10,49,19.70
2018,08,13,10,50,19.70
2018,08,13,10,51,19.70
2018,08,13,10,52,19.80
2018,08,13,10,53,19.80
2018,08,13,10,54,19.80
2018,08,13,10,55,19.80
2018,08,13,10,56,19.90
2018,08,13,10,57,19.90
2018,08,13,10,58,19.90
2018,08,13,10,59,19.90
2018,08,13,11,00,19.90
2018,08,13,11,01,20.00
2018,08,13,11,02,20.00
2018,08,13,11,03,20.00
2018,08,13,11,04,20.10
2018,08,13,11,05,20.10
2018,08,13,11,06,20.20
2018,08,13,11,07,20.20
2018,08,13,11,08,20.20
2018,08,13,11,09,20.20
2018,08,13,11,10,20.30
2018,08,13,11,11,20.30
2018,08,13,11,12,20.30
2018,08,13,11,13,20.40
2018,08,13,11,14,20.40
2018,08,13,11,15,20.40
2018,08,13,11,16,20.50
2018,08,13,11,17,20.50
2018,08,13,11,18,20.60
2018,08,13,11,19,20.70
2018,08,13,11,20,20.80
2018,08,13,11,21,20.90
2018,08,13,11,22,21.00
2018,08,13,11,23,21.10
2018,08,13,11,24,21.20
2018,08,13,11,25,21.30
2018,08,13,11,26,21.40
2018,08,13,11,27,21.50
2018,08,13,11,28,21.60
2018,08,13,11,29,21.70
2018,08,13,11,30,21.70
2018,08,13,11,31,21.80
2018,08,13,11,32,21.80
2018,08,13,11,33,21.90
2018,08,13,11,34,21.90
2018,08,13,11,35,21.90
2018,08,13,11,36,22.00
2018,08,13,11,37,22.10
2018,08,13,11,38,22.10
2018,08,13,11,39,22.00
2018,08,13,11,40,22.00
2018,08,13,11,41,22.00
2018,08,13,11,42,22.10
2018,08,13,11,43,22.10
2018,08,13,11,44,22.10
2018,08,13,11,45,22.10
2018,08,13,11,46,22.10
2018,08,13,11,47,22.20
2018,08,13,11,48,22.20
2018,08,13,11,49,22.20
2018,08,13,11,50,22.20
2018,08,13,11,51,22.20
2018,08,13,11,52,22.30
2018,08,13,11,53,22.30
2018,08,13,11,54,22.30
2018,08,13,11,55,22.30
2018,08,13,11,56,22.40
2018,08,13,11,57,22.40
2018,08,13,11,58,22.40
2018,08,13,11,59,22.40
2018,08,13,12,00,22.40
2018,08,13,12,01,22.40
2018,08,13,12,02,22.40
2018,08,13,12,03,22.30
2018,08,13,12,04,22.30
2018,08,13,12,05,22.30
2018,08,13,12,06,22.30
2018,08,13,12,07,22.20
2018,08,13,12,08,22.20
2018,08,13,12,09,22.10
2018,08,13,12,10,22.20
2018,08,13,12,11,22.20
2018,08,13,12,12,22.20
2018,08,13,12,13,22.20
2018,08,13,12,14,22.10
2018,08,13,12,15,22.10
2018,08,13,12,16,22.10
2018,08,13,12,17,22.10
2018,08,13,12,18,22.10
2018,08,13,12,19,22.10
2018,08,13,12,20,22.10
2018,08,13,12,21,22.10
2018,08,13,12,22,22.10
2018,08,13,12,23,22.20
2018,08,13,12,24,22.20
2018,08,13,12,25,22.30
2018,08,13,12,26,22.30
2018,08,13,12,27,22.40
2018,08,13,12,28,22.50
2018,08,13,12,29,22.50
2018,08,13,12,30,22.60
2018,08,13,12,31,22.60
2018,08,13,12,32,22.70
2018,08,13,12,33,22.70
2018,08,13,12,34,22.80
2018,08,13,12,35,22.90
2018,08,13,12,36,22.90
2018,08,13,12,37,22.90
2018,08,13,12,38,23.00
2018,08,13,12,39,23.00
2018,08,13,12,40,23.10
2018,08,13,12,41,23.10
2018,08,13,12,42,23.20
2018,08,13,12,43,23.30
2018,08,13,12,44,23.30
2018,08,13,12,45,23.40
2018,08,13,12,46,23.40
2018,08,13,12,47,23.50
2018,08,13,12,48,23.50
2018,08,13,12,49,23.60
2018,08,13,12,50,23.50
2018,08,13,12,51,23.40
2018,08,13,12,52,23.40
2018,08,13,12,53,23.30
2018,08,13,12,54,23.30
2018,08,13,12,55,23.30
2018,08,13,12,56,23.30
2018,08,13,12,57,23.40
2018,08,13,12,58,23.40
2018,08,13,12,59,23.50
2018,08,13,13,00,23.50
2018,08,13,13,01,23.50
2018,08,13,13,02,23.50
2018,08,13,13,03,23.50
2018,08,13,13,04,23.60
2018,08,13,13,05,23.60
2018,08,13,13,06,23.60
2018,08,13,13,07,23.70
2018,08,13,13,08,23.70
2018,08,13,13,09,23.70
2018,08,13,13,10,23.70
2018,08,13,13,11,23.70
2018,08,13,13,12,23.70
2018,08,13,13,13,23.80
2018,08,13,13,14,23.80
2018,08,13,13,15,23.80
2018,08,13,13,16,23.80
2018,08,13,13,17,23.90
2018,08,13,13,18,23.90
2018,08,13,13,19,24.00
2018,08,13,13,20,24.00
2018,08,13,13,21,24.10
2018,08,13,13,22,24.10
2018,08,13,13,23,24.10
2018,08,13,13,24,24.20
2018,08,13,13,25,24.20
2018,08,13,13,26,24.20
2018,08,13,13,27,24.20
2018,08,13,13,28,24.20
2018,08,13,13,29,24.20
2018,08,13,13,30,24.30
2018,08,13,13,31,24.30
2018,08,13,13,32,24.20
2018,08,13,13,33,24.10
2018,08,13,13,34,24.00
2018,08,13,13,35,24.00
2018,08,13,13,36,24.00
2018,08,13,13,37,24.00
2018,08,13,13,38,24.00
2018,08,13,13,39,24.00
2018,08,13,13,40,24.00
2018,08,13,13,41,24.00
2018,08,13,13,42,24.00
2018,08,13,13,43,24.00
2018,08,13,13,44,24.10
2018,08,13,13,45,24.10
2018,08,13,13,46,24.20
2018,08,13,13,47,24.20
2018,08,13,13,48,24.30
2018,08,13,13,49,24.30
2018,08,13,13,50,24.30
2018,08,13,13,51,24.30
2018,08,13,13,52,24.20
2018,08,13,13,53,24.20
2018,08,13,13,54,24.10
2018,08,13,13,55,24.10
2018,08,13,13,56,24.10
2018,08,13,13,57,24.20
2018,08,13,13,58,24.20
2018,08,13,13,59,24.20
2018,08,13,14,00,24.30
2018,08,13,14,01,24.30
2018,08,13,14,02,24.20
2018,08,13,14,03,24.20
2018,08,13,14,04,24.20
2018,08,13,14,05,24.20
2018,08,13,14,06,24.20
2018,08,13,14,07,24.20
2018,08,13,14,08,24.20
2018,08,13,14,09,24.20
2018,08,13,14,10,24.10
2018,08,13,14,11,24.10
2018,08,13,14,12,24.10
2018,08,13,14,13,24.10
2018,08,13,14,14,24.10
2018,08,13,14,15,24.00
2018,08,13,14,16,24.00
2018,08,13,14,17,23.90
2018,08,13,14,18,23.90
2018,08,13,14,19,24.00
2018,08,13,14,20,23.90
2018,08,13,14,21,23.90
2018,08,13,14,22,23.90
2018,08,13,14,23,23.90
2018,08,13,14,24,23.90
2018,08,13,14,25,23.90
2018,08,13,14,26,23.90
2018,08,13,14,27,23.90
2018,08,13,14,28,23.90
2018,08,13,14,29,23.90
2018,08,13,14,30,24.00
2018,08,13,14,31,24.00
2018,08,13,14,32,24.10
2018,08,13,14,33,24.10
2018,08,13,14,34,24.10
2018,08,13,14,35,24.10
2018,08,13,14,36,24.20
2018,08,13,14,37,24.20
2018,08,13,14,38,24.30
2018,08,13,14,39,24.40
2018,08,13,14,40,24.50
2018,08,13,14,41,24.60
2018,08,13,14,42,24.70
2018,08,13,14,43,24.80
2018,08,13,14,44,24.80
2018,08,13,14,45,24.90
2018,08,13,14,46,24.90
2018,08,13,14,47,25.00
2018,08,13,14,48,25.10
2018,08,13,14,49,25.10
2018,08,13,14,50,25.20
2018,08,13,14,51,25.20
2018,08,13,14,52,25.20
2018,08,13,14,53,25.20
2018,08,13,14,54,25.20
2018,08,13,14,55,25.20
2018,08,13,14,56,25.20
2018,08,13,14,57,25.20
2018,08,13,14,58,25.30
2018,08,13,14,59,25.30
2018,08,13,15,00,25.40
2018,08,13,15,01,25.40
2018,08,13,15,02,25.40
2018,08,13,15,03,25.40
2018,08,13,15,04,25.40
2018,08,13,15,05,25.40
2018,08,13,15,06,25.40
2018,08,13,15,07,25.30
2018,08,13,15,08,25.30
2018,08,13,15,09,25.30
2018,08,13,15,10,25.20
2018,08,13,15,11,25.20
2018,08,13,15,12,25.10
2018,08,13,15,13,25.10
2018,08,13,15,14,25.10
2018,08,13,15,15,25.10
2018,08,13,15,16,25.10
2018,08,13,15,17,25.20
2018,08,13,15,18,25.30
2018,08,13,15,19,25.30
2018,08,13,15,20,25.40
2018,08,13,15,21,25.40
2018,08,13,15,22,25.40
2018,08,13,15,23,25.50
2018,08,13,15,24,25.60
2018,08,13,15,25,25.60
2018,08,13,15,26,25.60
2018,08,13,15,27,25.50
2018,08,13,15,28,25.50
2018,08,13,15,29,25.40
2018,08,13,15,30,25.30
2018,08,13,15,31,25.20
2018,08,13,15,32,25.10
2018,08,13,15,33,25.00
2018,08,13,15,34,24.80
2018,08,13,15,35,24.70
2018,08,13,15,36,24.60
2018,08,13,15,37,24.50
2018,08,13,15,38,24.30
2018,08,13,15,39,24.30
2018,08,13,15,40,24.20
2018,08,13,15,41,24.20
2018,08,13,15,42,24.10
2018,08,13,15,43,24.10
2018,08,13,15,44,24.10
2018,08,13,15,45,24.20
2018,08,13,15,46,24.20
2018,08,13,15,47,24.30
2018,08,13,15,48,24.30
2018,08,13,15,49,24.30
2018,08,13,15,50,24.40
2018,08,13,15,51,24.40
2018,08,13,15,52,24.40
2018,08,13,15,53,24.40
2018,08,13,15,54,24.40
2018,08,13,15,55,24.40
2018,08,13,15,56,24.50
2018,08,13,15,57,24.50
2018,08,13,15,58,24.60
2018,08,13,15,59,24.60
2018,08,13,16,00,24.60
2018,08,13,16,01,24.70
2018,08,13,16,02,24.70
2018,08,13,16,03,24.70
2018,08,13,16,04,24.70
2018,08,13,16,05,24.80
2018,08,13,16,06,24.80
2018,08,13,16,07,24.80
2018,08,13,16,08,24.90
2018,08,13,16,09,25.00
2018,08,13,16,10,25.00
2018,08,13,16,11,25.10
2018,08,13,16,12,25.10
2018,08,13,16,13,25.10
2018,08,13,16,14,25.10
2018,08,13,16,15,25.20
2018,08,13,16,16,25.20
2018,08,13,16,17,25.20
2018,08,13,16,18,25.20
2018,08,13,16,19,25.20
2018,08,13,16,20,25.20
2018,08,13,16,21,25.20
2018,08,13,16,22,25.20
2018,08,13,16,23,25.20
2018,08,13,16,24,25.20
2018,08,13,16,25,25.30
2018,08,13,16,26,25.30
2018,08,13,16,27,25.30
2018,08,13,16,28,25.30
2018,08,13,16,29,25.30
2018,08,13,16,30,25.30
2018,08,13,16,31,25.30
2018,08,13,16,32,25.30
2018,08,13,16,33,25.30
2018,08,13,16,34,25.20
2018,08,13,16,35,25.20
2018,08,13,16,36,25.10
2018,08,13,16,37,25.10
2018,08,13,16,38,25.10
2018,08,13,16,39,25.10
2018,08,13,16,40,25.20
2018,08,13,16,41,25.20
2018,08,13,16,42,25.20
2018,08,13,16,43,25.20
2018,08,13,16,44,25.20
2018,08,13,16,45,25.30
2018,08,13,16,46,25.30
2018,08,13,16,47,25.30
2018,08,13,16,48,25.30
2018,08,13,16,49,25.20
2018,08,13,16,50,25.20
2018,08,13,16,51,25.10
2018,08,13,16,52,25.10
2018,08,13,16,53,25.10
2018,08,13,16,54,25.00
2018,08,13,16,55,25.00
2018,08,13,16,56,24.90
2018,08,13,16,57,24.90
2018,08,13,16,58,24.80
2018,08,13,16,59,24.80
2018,08,13,17,00,24.80
2018,08,13,17,01,24.80
2018,08,13,17,02,24.80
2018,08,13,17,03,24.80
2018,08,13,17,04,24.80
2018,08,13,17,05,24.80
2018,08,13,17,06,24.80
2018,08,13,17,07,24.80
2018,08,13,17,08,24.80
2018,08,13,17,09,24.80
2018,08,13,17,10,24.70
2018,08,13,17,11,24.70
2018,08,13,17,12,24.70
2018,08,13,17,13,24.70
2018,08,13,17,14,24.70
2018,08,13,17,15,24.70
2018,08,13,17,16,24.70
2018,08,13,17,17,24.70
2018,08,13,17,18,24.60
2018,08,13,17,19,24.60
2018,08,13,17,20,24.60
2018,08,13,17,21,24.60
2018,08,13,17,22,24.60